Weather History for KOPM - August, 2012

Change the Weather History Date:

Sunday, August 26, 2012

  Actual Average Record
Temperature  
Mean Temperature 83 °F -  
Max Temperature 84 °F - - ()
Min Temperature 82 °F - - ()
Cooling Degree Days 18    
Growing Degree Days 33 (Base 50)    
Moisture  
Dew Point 76 °F    
Average Humidity 77    
Maximum Humidity 84    
Minimum Humidity 74    
Precipitation  
Precipitation 0.00 in - - ()
Sea Level Pressure  
Sea Level Pressure 29.94 in    
Wind  
Wind Speed 14 mph (ESE)    
Max Wind Speed 20 mph    
Max Gust Speed -    
Visibility 9 miles    
Events      
T = Trace of Precipitation, MM = Missing Value Source: NWS Daily Summary

Daily Weather History Graph

Daily Weather History Graph

Search for Another Location

Airport or City:

Trip Planner

Search our weather history database for the weather conditions in past years. The results will help you decide how hot, cold, wet, or windy it might be!

Date:

Astronomy

Aug. 26, 2012 Rise Set
Actual Time 7:04 AM CDT 7:53 PM CDT
Civil Twilight 6:41 AM CDT 8:17 PM CDT
Nautical Twilight 6:12 AM CDT 8:45 PM CDT
Astronomical Twilight 5:44 AM CDT 9:13 PM CDT
Moon 4:07 PM CDT (8/26) 2:04 AM CDT (8/26)
Length of Visible Light 13h 36m
Length of Day
12h 48m
Waxing Gibbous, 73% of the Moon is Illuminated
Aug 26
Waxing Gibbous
Aug 31
Full
Sep 8
Last Quarter
Sep 15
New
Sep 22
First Quarter

Hourly Weather History & Observations

Time (CDT) Temp. Heat Index Dew Point Humidity Pressure Visibility Wind Dir Wind Speed Gust Speed Precip Events Conditions
12:15 AM 84.2 °F 94.1 °F 77.0 °F 79% 29.91 in 10.0 mi SE 16.1 mph - N/A   Clear
12:35 AM 84.2 °F 94.1 °F 77.0 °F 79% 29.92 in 10.0 mi SE 15.0 mph - N/A   Clear
12:55 AM 84.2 °F 94.1 °F 77.0 °F 79% 29.91 in 9.0 mi SE 15.0 mph - N/A   Clear
1:15 AM 84.2 °F 94.1 °F 77.0 °F 79% 29.91 in 8.0 mi SE 16.1 mph - N/A   Clear
1:35 AM 84.2 °F 94.1 °F 77.0 °F 79% 29.91 in 9.0 mi SE 13.8 mph - N/A   Clear
1:55 AM 84.2 °F 96.1 °F 78.8 °F 84% 29.91 in 8.0 mi SE 15.0 mph - N/A   Partly Cloudy
2:15 AM 82.4 °F 90.9 °F 77.0 °F 84% 29.90 in 8.0 mi SE 17.3 mph - N/A   Scattered Clouds
2:35 AM 84.2 °F 94.1 °F 77.0 °F 79% 29.90 in 8.0 mi SE 19.6 mph - N/A   Partly Cloudy
2:55 AM 84.2 °F 94.1 °F 77.0 °F 79% 29.90 in 8.0 mi SE 16.1 mph - N/A   Clear
3:15 AM 84.2 °F 94.1 °F 77.0 °F 79% 29.90 in 9.0 mi SE 17.3 mph - N/A   Clear
3:35 AM 84.2 °F 94.1 °F 77.0 °F 79% 29.90 in 8.0 mi SE 17.3 mph - N/A   Clear
3:55 AM 84.2 °F 92.3 °F 75.2 °F 74% 29.90 in 8.0 mi SE 18.4 mph - N/A   Clear
4:15 AM 84.2 °F 94.1 °F 77.0 °F 79% 29.89 in 8.0 mi SE 17.3 mph - N/A   Clear
4:35 AM 84.2 °F 94.1 °F 77.0 °F 79% 29.89 in 7.0 mi SE 16.1 mph - N/A   Clear
4:55 AM 84.2 °F 94.1 °F 77.0 °F 79% 29.89 in 7.0 mi SE 15.0 mph - N/A   Clear
5:15 AM 84.2 °F 94.1 °F 77.0 °F 79% 29.89 in 7.0 mi SE 17.3 mph - N/A   Partly Cloudy
5:35 AM 82.4 °F 90.9 °F 77.0 °F 84% 29.90 in 8.0 mi SE 16.1 mph - N/A   Partly Cloudy
5:55 AM 82.4 °F 90.9 °F 77.0 °F 84% 29.91 in 8.0 mi SE 17.3 mph - N/A   Clear
6:15 AM 82.4 °F 89.5 °F 75.2 °F 79% 29.92 in 8.0 mi SE 15.0 mph - N/A   Clear
6:35 AM 82.4 °F 89.5 °F 75.2 °F 79% 29.92 in 8.0 mi SE 15.0 mph - N/A   Clear
6:55 AM 84.2 °F 92.3 °F 75.2 °F 74% 29.93 in 8.0 mi SE 13.8 mph - N/A   Clear
7:15 AM 82.4 °F 90.9 °F 77.0 °F 84% 29.94 in 6.0 mi SE 13.8 mph - N/A   Haze
7:35 AM 84.2 °F 94.1 °F 77.0 °F 79% 29.95 in 6.0 mi SE 12.7 mph - N/A   Haze
7:55 AM 84.2 °F 94.1 °F 77.0 °F 79% 29.95 in 7.0 mi SE 12.7 mph - N/A   Clear
8:15 AM 84.2 °F 94.1 °F 77.0 °F 79% 29.96 in 7.0 mi SE 12.7 mph - N/A   Clear
8:55 AM 84.2 °F 94.1 °F 77.0 °F 79% 29.97 in 7.0 mi ESE 12.7 mph - N/A   Clear
9:15 AM 84.2 °F 94.1 °F 77.0 °F 79% 29.98 in 7.0 mi ESE 12.7 mph - N/A   Clear
9:35 AM 84.2 °F 94.1 °F 77.0 °F 79% 29.98 in 7.0 mi SE 12.7 mph - N/A   Clear
9:55 AM 84.2 °F 94.1 °F 77.0 °F 79% 29.99 in 8.0 mi SE 10.4 mph - N/A   Partly Cloudy
10:15 AM 84.2 °F 94.1 °F 77.0 °F 79% 29.99 in 8.0 mi SE 10.4 mph - N/A   Partly Cloudy
10:35 AM 84.2 °F 94.1 °F 77.0 °F 79% 29.99 in 8.0 mi ESE 11.5 mph - N/A   Clear
10:55 AM 84.2 °F 94.1 °F 77.0 °F 79% 30.00 in 9.0 mi SE 10.4 mph - N/A   Clear
11:15 AM 84.2 °F 94.1 °F 77.0 °F 79% 30.00 in 8.0 mi East 11.5 mph - N/A   Clear
11:35 AM 84.2 °F 94.1 °F 77.0 °F 79% 30.00 in 8.0 mi ESE 9.2 mph - N/A   Clear
11:55 AM 84.2 °F 94.1 °F 77.0 °F 79% 30.00 in 8.0 mi ESE 11.5 mph - N/A   Clear
12:15 PM 84.2 °F 94.1 °F 77.0 °F 79% 29.99 in 9.0 mi SE 11.5 mph - N/A   Clear
12:35 PM 84.2 °F 94.1 °F 77.0 °F 79% 29.99 in 8.0 mi SE 10.4 mph - N/A   Clear
12:55 PM 84.2 °F 94.1 °F 77.0 °F 79% 29.99 in 8.0 mi SE 10.4 mph - N/A   Clear
1:15 PM 84.2 °F 94.1 °F 77.0 °F 79% 29.98 in 9.0 mi ESE 11.5 mph - N/A   Clear
1:35 PM 84.2 °F 94.1 °F 77.0 °F 79% 29.98 in 8.0 mi ESE 10.4 mph - N/A   Clear
1:55 PM 84.2 °F 94.1 °F 77.0 °F 79% 29.98 in 9.0 mi ESE 11.5 mph - N/A   Clear
2:15 PM 84.2 °F 94.1 °F 77.0 °F 79% 29.98 in 9.0 mi ESE 11.5 mph - N/A   Clear
2:35 PM 84.2 °F 92.3 °F 75.2 °F 74% 29.97 in 9.0 mi ESE 12.7 mph - N/A   Clear
2:55 PM 84.2 °F 92.3 °F 75.2 °F 74% 29.97 in 9.0 mi ESE 10.4 mph - N/A   Clear
3:15 PM 84.2 °F 92.3 °F 75.2 °F 74% 29.96 in 10.0 mi ESE 10.4 mph - N/A   Clear
3:35 PM 84.2 °F 92.3 °F 75.2 °F 74% 29.96 in 9.0 mi ESE 10.4 mph - N/A   Clear
3:55 PM 84.2 °F 92.3 °F 75.2 °F 74% 29.95 in 9.0 mi ESE 10.4 mph - N/A   Clear
4:15 PM 84.2 °F 92.3 °F 75.2 °F 74% 29.94 in 10.0 mi ESE 11.5 mph - N/A   Clear
4:35 PM 84.2 °F 92.3 °F 75.2 °F 74% 29.94 in 9.0 mi East 11.5 mph - N/A   Clear
4:55 PM 84.2 °F 92.3 °F 75.2 °F 74% 29.94 in 10.0 mi East 11.5 mph - N/A   Clear
5:15 PM 84.2 °F 92.3 °F 75.2 °F 74% 29.93 in 10.0 mi East 11.5 mph - N/A   Partly Cloudy
5:35 PM 84.2 °F 92.3 °F 75.2 °F 74% 29.93 in 10.0 mi East 13.8 mph - N/A   Partly Cloudy
5:55 PM 84.2 °F 92.3 °F 75.2 °F 74% 29.93 in 10.0 mi East 12.7 mph - N/A   Clear
6:15 PM 84.2 °F 92.3 °F 75.2 °F 74% 29.92 in 10.0 mi East 15.0 mph - N/A   Clear
6:35 PM 84.2 °F 92.3 °F 75.2 °F 74% 29.92 in 10.0 mi East 15.0 mph - N/A   Clear
6:55 PM 84.2 °F 92.3 °F 75.2 °F 74% 29.92 in 10.0 mi East 13.8 mph - N/A   Clear
7:15 PM 84.2 °F 92.3 °F 75.2 °F 74% 29.92 in 10.0 mi East 15.0 mph - N/A   Clear
7:35 PM 84.2 °F 92.3 °F 75.2 °F 74% 29.92 in 10.0 mi East 13.8 mph - N/A   Partly Cloudy
7:55 PM 84.2 °F 92.3 °F 75.2 °F 74% 29.92 in 9.0 mi East 13.8 mph - N/A   Clear
8:15 PM 84.2 °F 92.3 °F 75.2 °F 74% 29.92 in 10.0 mi East 15.0 mph - N/A   Clear
8:35 PM 84.2 °F 92.3 °F 75.2 °F 74% 29.93 in 10.0 mi East 15.0 mph - N/A   Clear
8:55 PM 84.2 °F 92.3 °F 75.2 °F 74% 29.94 in 10.0 mi East 15.0 mph - N/A   Clear
9:15 PM 84.2 °F 92.3 °F 75.2 °F 74% 29.94 in 10.0 mi East 15.0 mph - N/A   Clear
9:35 PM 84.2 °F 92.3 °F 75.2 °F 74% 29.95 in 10.0 mi East 15.0 mph - N/A   Clear
9:55 PM 84.2 °F 92.3 °F 75.2 °F 74% 29.96 in 10.0 mi East 17.3 mph - N/A   Clear
10:15 PM 84.2 °F 92.3 °F 75.2 °F 74% 29.96 in 10.0 mi East 16.1 mph - N/A   Clear
10:35 PM 84.2 °F 92.3 °F 75.2 °F 74% 29.97 in 10.0 mi East 15.0 mph - N/A   Clear
11:15 PM 84.2 °F 92.3 °F 75.2 °F 74% 29.98 in 10.0 mi East 13.8 mph - N/A   Partly Cloudy
11:55 PM 84.2 °F 92.3 °F 75.2 °F 74% 29.97 in 10.0 mi East 15.0 mph - N/A   Clear